Wind_Speed
9 8 8 8 10 12 12 11 11 11 11 10 10 10 11 11 11 11 10 10 10 11 13 14 15 15 16 16 17 17 17 18 17 16 15 14 14 14 14 15 16 16
8 6 7 8 10 12 13 12 12 11 11 10 9 9 9 9 9 9 8 8 9 10 11 11 12 13 14 14 15 15 16 16 16 15 14 13 12 11 11 12 13 14
8 6 6 9 10 11 12 12 13 13 12 10 8 8 8 7 7 7 7 7 8 9 9 9 10 11 11 12 12 13 14 14 14 14 14 14 13 12 11 11 12 13
7 5 6 8 9 10 11 11 11 12 12 11 10 9 8 8 7 6 6 7 7 8 8 8 9 9 10 10 11 11 12 12 12 13 13 13 13 13 12 12 12 13
6 6 6 6 8 9 10 10 9 9 10 10 10 10 10 10 9 8 8 8 7 7 7 8 8 8 8 9 9 10 10 10 11 11 12 12 12 12 11 11 11 12
7 6 6 6 6 7 8 8 8 8 8 9 10 10 10 10 10 9 9 9 9 8 8 8 8 8 8 8 9 9 9 9 10 10 11 11 11 11 10 11 11 11
7 7 6 6 5 5 6 6 7 8 10 10 11 11 10 11 10 10 9 9 9 8 8 9 9 9 10 10 11 11 10 10 11 11 12 12 11 11 10 10 10 10
7 7 6 5 5 4 5 5 6 8 9 10 10 10 10 10 10 10 9 9 8 8 9 9 9 10 11 12 13 13 12 12 13 13 13 13 12 11 11 10 10 9
8 7 6 5 4 3 3 4 5 7 8 9 9 9 9 9 9 9 9 9 9 9 9 9 10 10 11 12 13 13 13 13 14 14 14 14 13 12 11 10 10 9
8 7 7 6 5 3 3 3 4 5 6 7 8 9 9 9 9 9 9 9 9 9 9 9 10 10 11 12 13 13 13 13 14 14 14 14 14 13 11 10 9 9
8 7 6 6 6 5 5 4 3 3 3 4 6 7 8 7 7 8 8 8 8 8 9 9 10 10 11 11 12 12 12 12 12 13 13 13 13 13 12 11 10 9
8 8 7 6 5 5 5 6 5 3 3 3 3 5 6 6 5 5 5 6 6 6 7 7 8 9 9 10 11 11 11 10 11 11 11 11 11 12 12 11 11 10
8 8 7 6 5 4 4 5 5 4 4 3 3 3 4 5 5 4 5 5 5 5 5 6 6 7 7 8 9 10 10 9 9 9 10 10 10 10 11 11 11 11
7 7 6 6 5 4 3 4 5 4 4 3 3 3 4 5 5 5 5 5 5 6 5 5 5 5 5 6 7 8 9 9 9 8 9 9 10 10 11 12 12 12
7 7 6 5 5 4 4 4 5 5 4 4 4 3 4 5 5 5 5 5 5 5 6 6 6 6 6 6 7 8 9 9 9 9 9 9 9 10 10 11 12 13
6 6 5 5 4 4 3 3 4 4 4 4 4 3 4 4 5 5 5 5 5 5 5 6 5 6 6 6 6 7 7 8 8 9 10 9 10 10 10 11 11 12
5 4 4 3 3 2 1 1 2 3 3 4 4 4 5 5 5 5 5 5 6 5 5 5 5 5 5 5 5 5 5 6 7 8 9 9 10 11 11 11 12 12
4 3 3 2 1 1 0 1 2 3 4 5 5 6 6 6 6 6 6 6 6 6 5 5 5 5 5 5 5 5 5 6 6 7 8 8 9 10 10 11 11 12
4 3 2 2 1 1 1 2 3 4 5 6 6 6 6 6 7 7 6 6 6 6 6 6 6 6 6 6 6 6 7 7 7 8 8 8 8 9 9 10 11 11
4 3 3 2 1 0 1 2 4 5 7 7 7 7 7 7 7 7 7 7 7 6 6 7 7 7 7 7 6 7 7 7 7 8 8 8 7 7 8 8 9 10
4 4 3 2 1 1 2 3 4 5 7 7 7 7 8 8 7 7 6 6 6 6 7 7 7 8 8 8 7 7 7 7 6 7 8 8 7 7 7 7 8 8
6 5 4 3 2 2 3 4 5 6 7 8 7 7 7 7 7 6 6 6 6 7 7 8 8 9 9 8 7 6 6 6 6 6 7 8 8 8 8 8 8 9
7 6 4 3 3 4 5 5 6 6 7 7 7 7 7 7 6 6 6 6 7 7 8 9 9 9 9 9 8 7 6 6 6 6 7 8 8 9 9 9 9 9
8 7 5 4 4 5 6 6 6 6 6 6 6 6 6 6 6 7 7 7 7 7 8 8 8 8 8 8 8 8 7 7 7 7 7 8 9 9 10 10 10 10
9 8 6 5 6 7 7 7 7 6 5 5 6 6 6 6 7 7 8 8 8 7 6 6 6 6 7 7 8 9 9 9 9 10 10 10 10 10 11 11 12 12
9 8 7 6 7 8 8 8 7 6 5 5 5 4 5 5 5 6 7 7 7 6 5 4 5 4 5 6 7 9 10 11 12 12 12 12 12 12 12 13 13 14
Wind_Direction
310 304 290 266 256 259 262 267 270 272 276 280 285 286 283 288 295 296 293 289 286 282 279 277 276 276 276 277 277 277 277 275 274 274 272 271 271 271 274 274 275 272
317 303 284 269 262 264 267 268 269 271 276 281 287 286 286 296 304 302 299 297 294 288 282 279 277 277 276 275 275 276 278 276 274 274 275 276 275 273 273 273 274 274
327 307 276 266 266 269 273 271 269 270 274 279 284 285 291 302 305 302 299 297 293 284 281 282 281 282 281 279 277 276 275 273 272 273 273 276 278 278 276 273 271 273
328 315 280 267 268 272 278 282 281 281 280 277 275 278 286 293 293 295 296 296 297 290 287 288 287 289 290 287 283 278 274 272 272 274 276 279 282 285 285 282 278 277
318 310 296 286 281 278 279 284 290 293 290 283 278 277 279 282 286 293 295 293 297 298 296 293 291 292 294 292 287 281 277 276 274 276 280 283 286 289 290 289 286 283
309 308 310 310 306 300 294 294 297 296 292 286 283 282 282 284 287 290 293 291 292 296 298 296 294 293 293 289 284 281 280 280 279 279 280 282 285 286 285 285 285 282
310 308 313 318 320 321 315 310 305 296 291 290 288 287 289 291 292 292 294 294 293 294 296 295 291 288 287 285 283 282 282 284 284 284 283 282 284 288 289 288 288 287
318 310 310 317 325 331 325 314 302 293 292 292 290 289 290 292 292 292 295 297 295 293 293 292 287 283 282 282 282 283 283 284 285 285 286 286 288 294 300 301 300 298
322 313 308 312 319 327 327 319 304 296 294 293 290 287 286 290 292 291 292 295 294 291 288 284 281 279 279 280 282 283 282 281 282 284 287 290 295 300 304 305 302 298
317 314 309 305 304 307 306 307 310 307 303 298 292 288 289 293 295 291 288 287 289 287 284 283 282 282 284 285 287 287 286 283 283 286 290 295 300 302 303 302 300 295
310 313 310 300 299 301 297 298 304 315 315 302 294 294 297 298 293 288 286 286 286 287 287 287 288 289 292 294 294 294 293 293 293 294 297 299 300 301 302 301 298 295
304 309 311 306 301 299 297 299 304 321 339 327 308 305 306 306 302 299 300 299 296 294 292 291 291 292 295 296 296 297 298 300 302 304 304 303 303 303 304 304 302 300
297 301 307 310 310 309 305 304 311 336 358 352 344 333 316 316 326 331 326 319 315 313 311 307 303 302 301 300 297 298 302 306 309 310 311 310 311 311 311 313 314 313
288 290 295 300 306 315 318 313 319 345 6 0 359 353 326 326 338 344 339 334 332 332 332 331 327 326 322 317 314 316 323 327 324 322 321 320 321 320 320 321 321 321
280 280 282 282 287 294 303 310 318 334 350 354 359 357 340 340 346 349 349 348 347 346 346 345 345 343 341 335 332 335 338 334 329 328 330 331 331 328 327 326 324 323
273 274 275 272 273 279 291 306 316 332 353 8 12 7 0 0 358 356 356 354 353 352 347 345 343 338 336 333 332 335 332 326 325 326 329 333 334 332 330 329 326 324
265 266 265 261 265 270 294 331 337 348 12 27 17 2 359 2 356 352 350 347 344 343 338 335 328 322 322 325 328 328 322 321 322 322 326 330 331 331 331 331 329 327
257 252 251 246 241 224 106 43 18 359 8 20 12 356 352 353 350 349 348 344 343 343 342 338 332 331 338 345 347 342 335 334 333 328 328 332 333 332 332 330 329 327
245 233 229 219 205 172 72 41 21 1 359 8 5 352 349 353 353 354 355 352 352 354 352 350 347 349 356 0 358 353 346 345 342 333 330 335 335 332 331 330 327 325
233 218 212 208 216 317 16 22 17 2 354 358 0 353 353 360 359 360 3 1 359 358 354 352 350 348 351 356 356 352 346 344 342 333 329 335 338 334 334 333 328 326
218 211 215 224 259 319 344 354 359 354 346 349 359 357 355 0 1 1 4 1 356 353 348 346 345 342 343 349 352 352 347 346 347 339 334 340 346 344 344 344 339 335
210 210 220 237 276 311 326 334 341 344 341 344 357 359 354 358 358 354 357 357 353 349 345 342 341 339 340 343 349 357 359 357 360 354 345 345 349 351 352 351 350 346
211 215 224 247 285 310 320 327 333 340 341 342 350 355 352 351 349 345 350 355 352 346 343 341 339 338 338 342 349 2 13 12 8 2 354 349 351 353 355 353 352 352
217 222 234 262 295 309 318 326 331 337 339 339 344 349 348 346 343 343 348 351 351 348 343 338 338 338 341 346 352 0 9 13 11 5 360 358 356 356 354 352 352 353
224 233 248 275 296 309 317 323 327 331 334 339 344 343 342 345 344 341 343 342 344 348 343 334 337 343 346 351 355 358 2 5 6 5 2 359 357 355 353 353 354 356
232 243 260 282 298 308 316 320 323 327 330 337 342 335 336 346 344 334 333 331 331 340 342 335 339 349 354 357 359 359 0 0 1 1 359 355 353 353 353 354 356 357
Height
3122 3121 3121 3121 3121 3120 3120 3120 3120 3119 3119 3119 3118 3117 3116 3116 3117 3116 3116 3116 3116 3116 3116 3116 3116 3116 3116 3116 3116 3115 3115 3115 3115 3115 3115 3114 3113 3113 3113 3113 3113 3113
3121 3121 3120 3120 3120 3120 3120 3120 3119 3119 3119 3118 3118 3117 3117 3117 3116 3116 3115 3115 3115 3115 3114 3114 3114 3114 3114 3114 3114 3114 3114 3114 3113 3113 3113 3112 3111 3111 3111 3111 3111 3111
3121 3120 3120 3119 3119 3119 3119 3119 3119 3118 3118 3118 3118 3117 3116 3116 3116 3115 3115 3114 3114 3113 3113 3113 3112 3112 3112 3112 3112 3112 3112 3112 3112 3111 3111 3111 3110 3109 3109 3109 3109 3108
3121 3120 3119 3118 3118 3118 3118 3118 3118 3117 3117 3117 3117 3116 3115 3115 3115 3114 3114 3113 3113 3112 3112 3112 3111 3111 3110 3110 3110 3110 3110 3110 3110 3109 3109 3109 3109 3108 3107 3107 3107 3107
3121 3120 3119 3118 3118 3117 3117 3117 3116 3116 3115 3115 3115 3115 3114 3114 3114 3113 3113 3112 3112 3111 3111 3110 3110 3110 3109 3109 3108 3108 3108 3108 3108 3107 3107 3107 3107 3106 3106 3105 3105 3105
3121 3120 3119 3118 3118 3117 3116 3116 3115 3115 3114 3114 3114 3114 3113 3113 3113 3112 3112 3111 3111 3110 3110 3109 3109 3108 3108 3107 3107 3107 3107 3107 3106 3106 3106 3106 3105 3105 3104 3103 3103 3103
3120 3119 3118 3118 3117 3117 3116 3115 3115 3114 3113 3113 3113 3112 3112 3112 3111 3111 3111 3110 3110 3109 3109 3108 3108 3107 3107 3106 3105 3105 3106 3106 3105 3105 3104 3104 3104 3104 3103 3102 3102 3102
3120 3119 3118 3117 3117 3116 3116 3115 3114 3113 3113 3112 3112 3111 3111 3111 3110 3110 3110 3109 3109 3108 3108 3107 3107 3106 3106 3105 3104 3104 3105 3105 3104 3103 3102 3102 3102 3102 3102 3101 3101 3100
3119 3118 3117 3117 3117 3116 3115 3115 3114 3113 3112 3112 3111 3111 3110 3110 3110 3110 3109 3109 3108 3108 3107 3107 3106 3105 3105 3104 3103 3103 3104 3103 3102 3102 3101 3101 3101 3101 3101 3100 3099 3098
3118 3117 3116 3116 3116 3115 3115 3114 3114 3113 3112 3111 3111 3110 3110 3110 3109 3109 3109 3108 3107 3107 3107 3106 3105 3104 3104 3103 3103 3102 3102 3102 3101 3101 3100 3100 3100 3100 3099 3098 3097 3097
3117 3116 3115 3115 3115 3114 3114 3114 3113 3113 3112 3112 3111 3110 3109 3109 3109 3108 3108 3107 3107 3106 3106 3105 3104 3104 3103 3103 3102 3101 3101 3101 3100 3100 3100 3099 3099 3098 3097 3097 3096 3095
3116 3115 3114 3114 3114 3113 3113 3112 3112 3113 3113 3112 3111 3110 3109 3109 3108 3108 3107 3107 3106 3106 3105 3105 3104 3103 3103 3102 3101 3100 3100 3100 3100 3099 3099 3098 3098 3097 3096 3095 3094 3094
3115 3114 3114 3113 3113 3113 3112 3111 3111 3112 3112 3111 3111 3110 3109 3108 3108 3107 3107 3106 3106 3105 3105 3104 3103 3103 3102 3101 3100 3099 3099 3099 3099 3098 3098 3097 3096 3095 3094 3093 3093 3092
3114 3113 3113 3113 3112 3112 3112 3111 3110 3111 3111 3111 3110 3109 3108 3107 3107 3107 3107 3106 3105 3105 3104 3103 3103 3102 3101 3100 3099 3098 3098 3098 3097 3097 3096 3095 3094 3094 3093 3092 3091 3090
3113 3113 3112 3112 3112 3112 3111 3111 3110 3111 3111 3110 3110 3109 3108 3107 3107 3106 3106 3105 3105 3104 3103 3103 3102 3101 3100 3100 3099 3098 3097 3096 3095 3095 3094 3094 3093 3092 3091 3090 3089 3088
3112 3112 3112 3112 3111 3111 3111 3111 3110 3110 3110 3110 3109 3109 3108 3107 3107 3106 3105 3105 3104 3103 3103 3102 3101 3100 3100 3100 3099 3098 3097 3096 3094 3093 3093 3092 3092 3091 3090 3089 3088 3087
3112 3111 3111 3111 3111 3111 3111 3110 3110 3110 3110 3110 3109 3108 3107 3107 3106 3105 3104 3104 3103 3103 3102 3101 3101 3100 3100 3100 3099 3098 3097 3095 3094 3093 3092 3091 3091 3090 3089 3088 3087 3086
3111 3111 3110 3110 3111 3111 3111 3110 3110 3109 3109 3109 3108 3107 3107 3106 3105 3104 3104 3103 3103 3102 3101 3100 3100 3099 3099 3099 3098 3097 3096 3095 3094 3093 3092 3091 3090 3089 3088 3087 3086 3085
3110 3110 3110 3110 3110 3110 3110 3110 3110 3109 3108 3108 3108 3107 3106 3105 3104 3104 3103 3102 3102 3101 3100 3099 3099 3098 3098 3098 3097 3096 3095 3094 3093 3092 3091 3090 3089 3088 3087 3086 3085 3084
3109 3109 3109 3109 3109 3110 3110 3110 3109 3108 3108 3108 3107 3106 3105 3105 3104 3103 3102 3101 3101 3100 3099 3098 3098 3097 3097 3096 3096 3095 3093 3093 3092 3090 3089 3089 3088 3087 3086 3085 3084 3083
3108 3109 3109 3109 3109 3109 3109 3109 3109 3108 3107 3107 3106 3105 3104 3104 3103 3102 3102 3101 3100 3099 3098 3097 3096 3096 3095 3095 3094 3094 3093 3091 3091 3089 3088 3087 3087 3086 3085 3084 3083 3082
3108 3108 3108 3108 3108 3108 3108 3108 3108 3108 3106 3106 3105 3105 3104 3103 3102 3101 3101 3100 3099 3098 3097 3096 3095 3094 3094 3093 3093 3093 3092 3091 3090 3089 3087 3086 3086 3085 3084 3083 3082 3081
3107 3107 3107 3107 3107 3107 3107 3107 3107 3107 3106 3105 3104 3104 3103 3102 3102 3101 3100 3099 3098 3097 3096 3095 3094 3093 3093 3092 3092 3092 3091 3090 3089 3088 3087 3086 3085 3084 3083 3082 3081 3080
3106 3106 3107 3107 3107 3107 3106 3106 3106 3106 3105 3104 3103 3103 3102 3101 3101 3100 3099 3098 3098 3097 3096 3095 3094 3093 3092 3091 3091 3090 3090 3089 3088 3088 3087 3085 3084 3083 3082 3080 3079 3078
3105 3105 3106 3106 3106 3105 3105 3105 3105 3105 3104 3104 3103 3102 3101 3100 3099 3098 3097 3097 3096 3096 3095 3094 3094 3093 3092 3091 3090 3089 3088 3087 3087 3086 3085 3084 3083 3082 3080 3079 3078 3076
3104 3104 3105 3105 3105 3104 3104 3104 3103 3103 3103 3103 3102 3101 3101 3100 3099 3098 3097 3096 3095 3095 3095 3094 3093 3092 3091 3090 3089 3088 3087 3086 3085 3084 3083 3082 3081 3080 3078 3077 3075 3074